WB5CON Weather Reports


time (UTC)temp
C
wind
direction
speed
KPH
gust
KPH
rain 1hr
cm
rain 24hr
cm
rain mn
cm
humidity
%
barometer
mb
20260504201007 26 204 3.2 19.3 0.00 0.00 0.00 42 1012.5
20260504200006 26 185 6.4 27.4 0.00 0.00 0.00 44 1012.8
20260504195007 26 112 3.2 27.4 0.00 0.00 0.00 43 1012.7
20260504194007 26 235 4.8 25.7 0.00 0.00 0.00 41 1012.9
20260504193007 27 233 11.3 29.0 0.00 0.00 0.00 42 1013.1
20260504185007 27 202 4.8 25.7 0.00 0.00 0.00 44 1013.5
20260504182007 26 195 6.4 25.7 0.00 0.00 0.00 44 1013.7
20260504175007 26 235 4.8 19.3 0.00 0.00 0.00 48 1014.0
20260504173007 25 236 3.2 19.3 0.00 0.00 0.00 48 1014.4
20260504172007 26 280 0.0 25.7 0.00 0.00 0.00 50 1014.5
20260504171007 25 166 4.8 29.0 0.00 0.00 0.00 49 1014.6
20260504151007 21 235 3.2 14.5 0.00 0.00 0.00 64 1016.1
20260504141007 17 177 4.8 9.7 0.00 0.00 0.00 71 1016.4
20260504082007 12 163 0.0 4.8 0.00 0.00 0.00 77 1016.0
20260504081007 12 198 1.6 4.8 0.00 0.00 0.00 76 1016.0
20260504050008 12 223 0.0 3.2 0.00 0.00 0.00 78 1017.3
20260504041007 12 233 0.0 0.0 0.00 0.00 0.00 78 1017.5
20260504035007 12 233 0.0 1.6 0.00 0.00 0.00 77 1017.7
20260504034006 12 233 0.0 1.6 0.00 0.00 0.00 78 1017.7
20260504031007 13 233 0.0 0.0 0.00 0.00 0.00 75 1017.8
20260504030007 13 233 0.0 0.0 0.00 0.00 0.00 75 1017.9
20260504022007 14 233 0.0 0.0 0.00 0.00 0.00 70 1017.6
20260504013007 16 233 0.0 0.0 0.00 0.00 0.00 62 1017.3
20260504012007 16 233 0.0 0.0 0.00 0.00 0.00 61 1017.3
20260504003007 18 233 0.0 0.0 0.00 0.00 0.00 48 1016.9
20260504001007 20 227 0.0 1.6 0.00 0.00 0.00 48 1017.0
20260504000007 20 239 1.6 11.3 0.00 0.00 0.00 41 1017.0
20260503235007 20 226 0.0 4.8 0.00 0.00 0.00 43 1017.1
20260503234007 21 228 1.6 3.2 0.00 0.00 0.00 42 1017.1
20260503233007 21 259 1.6 9.7 0.00 0.00 0.00 40 1017.3
20260503231007 21 174 1.6 14.5 0.00 0.00 0.00 40 1017.5
20260503225007 21 173 0.0 4.8 0.00 0.00 0.00 40 1017.6
20260503222007 22 224 3.2 12.9 0.00 0.00 0.00 38 1017.9
20260503213007 22 200 1.6 4.8 0.00 0.00 0.00 36 1018.3
20260503212007 22 260 3.2 19.3 0.00 0.00 0.00 38 1018.5